Salem, IL

5:41 AM CST on February 08, 2016 (GMT -0600)
Salem-Leckrone

Weather History for KSLO - May, 2013

Change the Weather History Date:

Sunday, May 12, 2013

  Actual Average Record
Temperature  
Mean Temperature 51 °F -  
Max Temperature 60 °F 75 °F 88 °F (1985)
Min Temperature 42 °F 53 °F 32 °F (1960)
Degree Days  
Heating Degree Days 14    
Growing Degree Days 1 (Base 50)    
Moisture  
Dew Point 37 °F    
Average Humidity 59    
Maximum Humidity 87    
Minimum Humidity 36    
Precipitation  
Precipitation 0.00 in - - ()
Sea Level Pressure  
Sea Level Pressure 30.18 in    
Wind  
Wind Speed 6 mph (NW)    
Max Wind Speed 16 mph    
Max Gust Speed 24 mph    
Visibility 10 miles    
Events      
Averages and records for this station are not official NWS values.
T = Trace of Precipitation, MM = Missing Value Source: NWS Daily Summary

Daily Weather History Graph

Daily Weather History Graph

Search for Another Location

Airport or City:

Trip Planner

Search our weather history database for the weather conditions in past years. The results will help you decide how hot, cold, wet, or windy it might be!

Date:

Astronomy

May. 12, 2013 Rise Set
Actual Time 5:46 AM CDT 7:58 PM CDT
Civil Twilight 5:16 AM CDT 8:28 PM CDT
Nautical Twilight 4:40 AM CDT 9:04 PM CDT
Astronomical Twilight 4:00 AM CDT 9:44 PM CDT
Moon 7:41 AM CDT (5/12) 10:25 PM CDT (5/12)
Length of Visible Light 15h 11m
Length of Day
14h 12m
Waxing Crescent, 7% of the Moon is Illuminated
May 12
Waxing Crescent
May 17
First Quarter
May 24
Full
May 31
Last Quarter
Jun 8
New

Hourly Weather History & Observations

Time (CDT) Temp. Windchill Dew Point Humidity Pressure Visibility Wind Dir Wind Speed Gust Speed Precip Events Conditions
12:15 AM 49.1 °F - 38.1 °F 66% 30.15 in 10.0 mi NW 5.8 mph - N/A   Clear
12:35 AM 48.7 °F - 38.1 °F 67% 30.15 in 10.0 mi NW 5.8 mph - N/A   Clear
12:55 AM 48.0 °F - 38.5 °F 70% 30.15 in 10.0 mi NW 3.5 mph - N/A   Clear
1:15 AM 48.2 °F - 39.2 °F 71% 30.15 in 10.0 mi NW 3.5 mph - N/A   Clear
1:35 AM 47.3 °F - 38.1 °F 70% 30.15 in 10.0 mi NW 3.5 mph - N/A   Clear
1:55 AM 47.1 °F - 37.8 °F 70% 30.15 in 10.0 mi NW 3.5 mph - N/A   Clear
2:15 AM 46.4 °F 45.2 °F 37.4 °F 71% 30.14 in 10.0 mi NW 3.5 mph - N/A   Clear
2:35 AM 46.0 °F 44.8 °F 37.4 °F 72% 30.14 in 10.0 mi NW 3.5 mph - N/A   Clear
2:55 AM 46.2 °F - 36.0 °F 67% 30.14 in 10.0 mi Calm Calm - N/A   Clear
3:15 AM 45.5 °F 44.2 °F 36.7 °F 71% 30.14 in 10.0 mi NW 3.5 mph - N/A   Clear
3:35 AM 45.0 °F - 37.4 °F 75% 30.14 in 10.0 mi Calm Calm - N/A   Clear
3:55 AM 44.6 °F - 36.9 °F 74% 30.14 in 10.0 mi Calm Calm - N/A   Clear
4:15 AM 45.0 °F 43.5 °F 35.6 °F 70% 30.15 in 10.0 mi WNW 3.5 mph - N/A   Clear
4:35 AM 43.7 °F 41.1 °F 36.7 °F 76% 30.15 in 10.0 mi NW 4.6 mph - N/A   Clear
4:55 AM 43.9 °F 40.5 °F 35.6 °F 73% 30.15 in 10.0 mi NW 5.8 mph - N/A   Clear
5:15 AM 43.3 °F 40.7 °F 35.6 °F 74% 30.15 in 10.0 mi NW 4.6 mph - N/A   Clear
5:35 AM 42.4 °F 39.6 °F 35.8 °F 77% 30.16 in 10.0 mi NW 4.6 mph - N/A   Clear
5:55 AM 42.8 °F 40.1 °F 35.1 °F 74% 30.17 in 10.0 mi WNW 4.6 mph - N/A   Clear
6:15 AM 42.8 °F 39.3 °F 35.2 °F 75% 30.18 in 10.0 mi WNW 5.8 mph - N/A   Clear
6:35 AM 43.9 °F 41.3 °F 35.6 °F 73% 30.18 in 10.0 mi NW 4.6 mph - N/A   Clear
6:55 AM 45.0 °F 41.8 °F 36.1 °F 71% 30.18 in 10.0 mi NW 5.8 mph - N/A   Clear
7:15 AM 46.2 °F 43.3 °F 36.7 °F 69% 30.18 in 10.0 mi NW 5.8 mph - N/A   Clear
7:35 AM 47.3 °F - 36.5 °F 66% 30.19 in 10.0 mi NW 8.1 mph - N/A   Clear
7:55 AM 48.2 °F - 36.5 °F 64% 30.19 in 10.0 mi NW 8.1 mph - N/A   Clear
8:15 AM 49.1 °F - 35.8 °F 60% 30.19 in 10.0 mi NNW 8.1 mph - N/A   Clear
8:35 AM 50.5 °F - 35.6 °F 57% 30.20 in 10.0 mi NNW 8.1 mph - N/A   Clear
8:55 AM 51.3 °F - 34.7 °F 53% 30.21 in 10.0 mi NW 5.8 mph - N/A   Clear
9:15 AM 52.5 °F - 36.3 °F 54% 30.21 in 10.0 mi North 8.1 mph - N/A   Clear
9:35 AM 52.3 °F - 33.1 °F 48% 30.21 in 10.0 mi NNW 4.6 mph - N/A   Clear
9:55 AM 53.4 °F - 33.4 °F 47% 30.21 in 10.0 mi NNW 10.4 mph 17.3 mph N/A   Clear
10:15 AM 53.6 °F - 33.8 °F 47% 30.22 in 10.0 mi NW 9.2 mph - N/A   Clear
10:35 AM 54.7 °F - 33.6 °F 45% 30.22 in 10.0 mi WNW 10.4 mph - N/A   Clear
10:55 AM 55.0 °F - 34.0 °F 45% 30.22 in 10.0 mi WNW 16.1 mph 19.6 mph N/A   Clear
11:15 AM 55.2 °F - 33.3 °F 43% 30.22 in 10.0 mi WNW 6.9 mph 11.5 mph N/A   Clear
11:35 AM 55.8 °F - 34.9 °F 45% 30.22 in 10.0 mi NW 12.7 mph 18.4 mph N/A   Clear
11:55 AM 56.3 °F - 34.7 °F 44% 30.22 in 10.0 mi West 12.7 mph 16.1 mph N/A   Scattered Clouds
12:15 PM 56.5 °F - 35.8 °F 46% 30.22 in 10.0 mi NW 12.7 mph - N/A   Clear
12:35 PM 56.5 °F - 33.4 °F 42% 30.21 in 10.0 mi NNW 8.1 mph - N/A   Scattered Clouds
12:55 PM 57.7 °F - 35.2 °F 43% 30.21 in 10.0 mi WNW 13.8 mph 18.4 mph N/A   Scattered Clouds
1:15 PM 57.2 °F - 33.8 °F 41% 30.20 in 10.0 mi NW 15.0 mph 24.2 mph N/A   Clear
1:35 PM 58.5 °F - 35.4 °F 42% 30.20 in 10.0 mi NNW 13.8 mph 17.3 mph N/A   Clear
1:55 PM 58.3 °F - 34.9 °F 41% 30.19 in 10.0 mi NW 13.8 mph - N/A   Clear
2:15 PM 58.6 °F - 35.8 °F 42% 30.19 in 10.0 mi West 9.2 mph - N/A   Clear
2:35 PM 59.4 °F - 35.8 °F 41% 30.19 in 10.0 mi WNW 13.8 mph 18.4 mph N/A   Clear
2:55 PM 59.4 °F - 35.8 °F 41% 30.18 in 10.0 mi NW 9.2 mph - N/A   Clear
3:15 PM 60.1 °F - 35.4 °F 40% 30.18 in 10.0 mi NW 13.8 mph 19.6 mph N/A   Clear
3:35 PM 59.7 °F - 34.2 °F 38% 30.17 in 10.0 mi NW 12.7 mph 16.1 mph N/A   Clear
3:55 PM 60.1 °F - 34.3 °F 38% 30.17 in 10.0 mi NW 9.2 mph 24.2 mph N/A   Scattered Clouds
4:15 PM 59.9 °F - 34.5 °F 39% 30.17 in 10.0 mi NW 4.6 mph - N/A   Scattered Clouds
4:35 PM 60.1 °F - 33.1 °F 36% 30.17 in 10.0 mi NW 12.7 mph 18.4 mph N/A   Clear
4:55 PM 59.9 °F - 33.8 °F 38% 30.16 in 10.0 mi NNW 11.5 mph 16.1 mph N/A   Clear
5:15 PM 59.9 °F - 33.6 °F 37% 30.16 in 10.0 mi NW 6.9 mph - N/A   Scattered Clouds
5:35 PM 59.5 °F - 32.7 °F 36% 30.16 in 10.0 mi WNW 4.6 mph - N/A   Scattered Clouds
5:55 PM 58.8 °F - 33.1 °F 38% 30.15 in 10.0 mi WNW 8.1 mph - N/A   Clear
6:15 PM 59.4 °F - 34.2 °F 39% 30.15 in 10.0 mi WNW 11.5 mph - N/A   Scattered Clouds
6:35 PM 59.2 °F - 34.7 °F 40% 30.15 in 10.0 mi WNW 8.1 mph - N/A   Scattered Clouds
6:55 PM 58.6 °F - 34.2 °F 40% 30.15 in 10.0 mi West 8.1 mph - N/A   Scattered Clouds
7:15 PM 58.1 °F - 32.9 °F 39% 30.15 in 10.0 mi WNW 5.8 mph - N/A   Scattered Clouds
7:35 PM 56.3 °F - 35.8 °F 46% 30.15 in 10.0 mi NW 4.6 mph - N/A   Clear
7:55 PM 55.4 °F - 36.0 °F 48% 30.15 in 10.0 mi Calm Calm - N/A   Clear
8:15 PM 53.8 °F - 43.5 °F 68% 30.16 in 10.0 mi Calm Calm - N/A   Clear
8:35 PM 51.6 °F - 41.9 °F 69% 30.17 in 10.0 mi Calm Calm - N/A   Clear
8:55 PM 51.3 °F - 43.5 °F 75% 30.17 in 10.0 mi Calm Calm - N/A   Clear
9:15 PM 49.8 °F - 43.3 °F 78% 30.18 in 10.0 mi Calm Calm - N/A   Clear
9:35 PM 48.2 °F - 42.4 °F 80% 30.18 in 10.0 mi Calm Calm - N/A   Clear
9:55 PM 47.5 °F - 41.7 °F 80% 30.18 in 10.0 mi Calm Calm - N/A   Clear
10:15 PM 47.8 °F - 42.1 °F 80% 30.18 in 10.0 mi Calm Calm - N/A   Clear
10:35 PM 46.9 °F - 41.7 °F 82% 30.18 in 10.0 mi Calm Calm - N/A   Clear
10:55 PM 46.6 °F - 41.4 °F 82% 30.18 in 10.0 mi Calm Calm - N/A   Clear
11:15 PM 45.9 °F - 41.7 °F 85% 30.18 in 10.0 mi Calm Calm - N/A   Clear
11:35 PM 45.7 °F - 41.7 °F 86% 30.18 in 10.0 mi Calm Calm - N/A   Clear
11:55 PM 45.5 °F - 41.7 °F 87% 30.18 in 10.0 mi Calm Calm - N/A   Clear